When you browse on this site, cookies collect data to enhance your experience and personalize the content and advertising you see.
Visit our Privacy Policy to learn more. By continuing to use the site, you agree to this use of cookies and data.
  • In Deutschland
  • Länderverzeichnis
  • Für 7 Tage
  • Wassertemperatur
  • Wetterkarte
  • Widgets
  • user-avatar
    Anmelden

    Stündliche Wetter Eiterfeld

    Heute, 15 September, Sonntag

    Zeit Temperatur Niederschläge Wind Luftdruck Luftfeuchtigkeit
    00:00 +11°C° 0 mm 0 m/S 740 mmHg 89%
    01:00 +11°C° 0 mm 0 m/S 740 mmHg 90%
    02:00 +12°C° 0 mm 1 m/S 739 mmHg 91%
    03:00 +12°C° 0 mm 1 m/S 739 mmHg 92%
    04:00 +12°C° 0 mm 1 m/S 738 mmHg 93%
    05:00 +12°C° 0 mm 1 m/S 738 mmHg 92%
    06:00 +12°C° 0 mm 1 m/S 738 mmHg 91%
    07:00 +13°C° 0 mm 1 m/S 738 mmHg 91%
    08:00 +15°C° 0 mm 1 m/S 738 mmHg 79%
    09:00 +18°C° 0 mm 2 m/S 738 mmHg 68%
    10:00 +20°C° 0 mm 2 m/S 738 mmHg 57%
    11:00 +21°C° 0 mm 3 m/S 738 mmHg 52%
    12:00 +22°C° 0 mm 3 m/S 738 mmHg 48%
    13:00 +24°C° 0 mm 3 m/S 737 mmHg 44%
    14:00 +24°C° 0 mm 3 m/S 737 mmHg 44%
    15:00 +24°C° 0 mm 3 m/S 737 mmHg 44%
    16:00 +24°C° 0 mm 3 m/S 736 mmHg 45%
    17:00 +21°C° 0 mm 2 m/S 736 mmHg 51%
    18:00 +18°C° 0 mm 2 m/S 736 mmHg 58%
    19:00 +16°C° 0 mm 1 m/S 735 mmHg 64%
    20:00 +15°C° 0 mm 1 m/S 735 mmHg 66%
    21:00 +14°C° 0 mm 1 m/S 735 mmHg 68%
    22:00 +12°C° 0 mm 0 m/S 735 mmHg 70%
    23:00 +12°C° 0 mm 0 m/S 735 mmHg 71%

    Morgen, 16 September, Montag

    Zeit Temperatur Niederschläge Wind Luftdruck Luftfeuchtigkeit
    00:00 +12°C° 0 mm 1 m/S 735 mmHg 72%
    01:00 +12°C° 0 mm 1 m/S 735 mmHg 72%
    02:00 +12°C° 0 mm 1 m/S 735 mmHg 71%
    03:00 +12°C° 0 mm 1 m/S 735 mmHg 70%
    04:00 +12°C° 0 mm 1 m/S 735 mmHg 69%
    05:00 +13°C° 0 mm 1 m/S 734 mmHg 69%
    06:00 +13°C° 0 mm 1 m/S 734 mmHg 69%
    07:00 +14°C° 0 mm 1 m/S 734 mmHg 68%
    08:00 +15°C° 0 mm 1 m/S 734 mmHg 66%
    09:00 +17°C° 0 mm 2 m/S 734 mmHg 64%
    10:00 +18°C° 0 mm 2 m/S 734 mmHg 61%
    11:00 +18°C° 0 mm 2 m/S 734 mmHg 62%
    12:00 +19°C° 0 mm 3 m/S 734 mmHg 63%
    13:00 +19°C° 0 mm 3 m/S 734 mmHg 63%
    14:00 +18°C° 0.1 mm 3 m/S 733 mmHg 69%
    15:00 +17°C° 0.1 mm 2 m/S 733 mmHg 74%
    16:00 +16°C° 0.1 mm 2 m/S 733 mmHg 79%
    17:00 +16°C° 0.1 mm 2 m/S 733 mmHg 83%
    18:00 +15°C° 0.1 mm 2 m/S 733 mmHg 86%
    19:00 +15°C° 0.1 mm 1 m/S 733 mmHg 90%
    20:00 +14°C° 0 mm 1 m/S 733 mmHg 91%
    21:00 +14°C° 0 mm 1 m/S 733 mmHg 93%
    22:00 +14°C° 0 mm 2 m/S 734 mmHg 94%
    23:00 +13°C° 0 mm 2 m/S 734 mmHg 93%

    übermorgen, 17 September, Dienstag

    Zeit Temperatur Niederschläge Wind Luftdruck Luftfeuchtigkeit
    00:00 +13°C° 0 mm 2 m/S 734 mmHg 92%
    01:00 +12°C° 0 mm 2 m/S 734 mmHg 91%
    02:00 +11°C° 0 mm 1 m/S 734 mmHg 91%
    03:00 +11°C° 0 mm 1 m/S 734 mmHg 91%
    04:00 +10°C° 0 mm 1 m/S 734 mmHg 91%
    05:00 +9°C° 0 mm 1 m/S 734 mmHg 91%
    06:00 +9°C° 0 mm 1 m/S 734 mmHg 91%
    07:00 +9°C° 0 mm 1 m/S 734 mmHg 91%
    08:00 +9°C° 0 mm 2 m/S 735 mmHg 82%
    09:00 +11°C° 0 mm 3 m/S 735 mmHg 74%
    10:00 +12°C° 0 mm 3 m/S 735 mmHg 65%
    11:00 +13°C° 0 mm 4 m/S 735 mmHg 61%
    12:00 +14°C° 0 mm 4 m/S 735 mmHg 57%
    13:00 +15°C° 0 mm 4 m/S 735 mmHg 53%
    14:00 +14°C° 0 mm 5 m/S 734 mmHg 55%
    15:00 +14°C° 0 mm 5 m/S 734 mmHg 56%
    16:00 +14°C° 0 mm 5 m/S 734 mmHg 58%
    17:00 +12°C° 0 mm 4 m/S 734 mmHg 63%
    18:00 +11°C° 0 mm 3 m/S 734 mmHg 68%
    19:00 +9°C° 0 mm 3 m/S 735 mmHg 73%
    20:00 +8°C° 0 mm 2 m/S 735 mmHg 77%
    21:00 +7°C° 0 mm 2 m/S 736 mmHg 82%
    22:00 +7°C° 0 mm 1 m/S 736 mmHg 86%
    23:00 +6°C° 0 mm 1 m/S 736 mmHg 88%

    18 September, Mittwoch

    Zeit Temperatur Niederschläge Wind Luftdruck Luftfeuchtigkeit
    00:00 +6°C° 0 mm 1 m/S 736 mmHg 90%
    01:00 +5°C° 0 mm 1 m/S 736 mmHg 91%
    02:00 +5°C° 0 mm 1 m/S 736 mmHg 92%
    03:00 +5°C° 0 mm 1 m/S 736 mmHg 93%
    04:00 +4°C° 0 mm 1 m/S 736 mmHg 94%
    05:00 +4°C° 0 mm 0 m/S 737 mmHg 93%
    06:00 +4°C° 0 mm 0 m/S 737 mmHg 92%
    07:00 +5°C° 0 mm 0 m/S 737 mmHg 90%
    08:00 +8°C° 0 mm 1 m/S 737 mmHg 80%
    09:00 +10°C° 0 mm 1 m/S 738 mmHg 71%
    10:00 +12°C° 0 mm 2 m/S 738 mmHg 61%
    11:00 +12°C° 0 mm 2 m/S 738 mmHg 58%
    12:00 +13°C° 0 mm 2 m/S 738 mmHg 54%
    13:00 +13°C° 0 mm 2 m/S 737 mmHg 51%
    14:00 +12°C° 0 mm 3 m/S 737 mmHg 51%
    15:00 +12°C° 0 mm 3 m/S 737 mmHg 52%
    16:00 +12°C° 0 mm 3 m/S 737 mmHg 52%
    17:00 +12°C° 0 mm 2 m/S 737 mmHg 58%
    18:00 +10°C° 0 mm 2 m/S 737 mmHg 65%
    19:00 +8°C° 0 mm 2 m/S 737 mmHg 72%
    20:00 +8°C° 0 mm 1 m/S 737 mmHg 78%
    21:00 +7°C° 0 mm 1 m/S 738 mmHg 84%
    22:00 +6°C° 0 mm 1 m/S 738 mmHg 91%
    23:00 +6°C° 0 mm 1 m/S 738 mmHg 91%

    19 September, Donnerstag

    Zeit Temperatur Niederschläge Wind Luftdruck Luftfeuchtigkeit
    00:00 +5°C° 0 mm 1 m/S 738 mmHg 92%
    01:00 +5°C° 0 mm 1 m/S 738 mmHg 93%
    02:00 +5°C° 0 mm 1 m/S 738 mmHg 93%
    03:00 +4°C° 0 mm 1 m/S 738 mmHg 94%
    04:00 +4°C° 0 mm 1 m/S 738 mmHg 95%
    05:00 +4°C° 0 mm 1 m/S 738 mmHg 94%
    06:00 +5°C° 0 mm 1 m/S 739 mmHg 94%
    07:00 +5°C° 0 mm 1 m/S 739 mmHg 93%
    08:00 +7°C° 0 mm 1 m/S 739 mmHg 84%
    09:00 +8°C° 0 mm 2 m/S 740 mmHg 75%
    10:00 +10°C° 0 mm 3 m/S 740 mmHg 65%
    11:00 +11°C° 0 mm 3 m/S 740 mmHg 64%
    12:00 +11°C° 0 mm 3 m/S 740 mmHg 62%
    13:00 +12°C° 0 mm 3 m/S 740 mmHg 61%
    14:00 +12°C° 0.1 mm 3 m/S 740 mmHg 61%
    15:00 +12°C° 0.1 mm 3 m/S 740 mmHg 60%
    16:00 +13°C° 0.1 mm 3 m/S 740 mmHg 60%
    17:00 +11°C° 0 mm 3 m/S 740 mmHg 68%
    18:00 +9°C° 0 mm 2 m/S 740 mmHg 77%
    19:00 +8°C° 0 mm 1 m/S 741 mmHg 85%
    20:00 +8°C° 0 mm 1 m/S 741 mmHg 87%
    21:00 +7°C° 0 mm 1 m/S 742 mmHg 90%
    22:00 +6°C° 0 mm 1 m/S 742 mmHg 92%
    23:00 +6°C° 0 mm 1 m/S 742 mmHg 93%

    20 September, Freitag

    Zeit Temperatur Niederschläge Wind Luftdruck Luftfeuchtigkeit
    00:00 +5°C° 0 mm 0 m/S 742 mmHg 93%
    01:00 +4°C° 0 mm 0 m/S 742 mmHg 94%
    02:00 +4°C° 0 mm 0 m/S 742 mmHg 94%
    03:00 +4°C° 0 mm 0 m/S 742 mmHg 94%
    04:00 +4°C° 0 mm 0 m/S 742 mmHg 94%
    05:00 +4°C° 0 mm 0 m/S 742 mmHg 94%
    06:00 +4°C° 0 mm 0 m/S 743 mmHg 94%
    07:00 +5°C° 0 mm 0 m/S 743 mmHg 93%
    08:00 +7°C° 0 mm 0 m/S 743 mmHg 82%
    09:00 +10°C° 0 mm 0 m/S 744 mmHg 72%
    10:00 +13°C° 0 mm 0 m/S 744 mmHg 61%
    11:00 +14°C° 0 mm 0 m/S 744 mmHg 54%
    12:00 +15°C° 0 mm 0 m/S 743 mmHg 48%
    13:00 +16°C° 0 mm 0 m/S 743 mmHg 41%
    14:00 +16°C° 0 mm 0 m/S 742 mmHg 41%
    15:00 +16°C° 0 mm 0 m/S 742 mmHg 41%
    16:00 +15°C° 0 mm 0 m/S 741 mmHg 41%
    17:00 +13°C° 0 mm 0 m/S 741 mmHg 48%
    18:00 +11°C° 0 mm 0 m/S 741 mmHg 55%
    19:00 +8°C° 0 mm 0 m/S 740 mmHg 63%
    20:00 +8°C° 0 mm 0 m/S 740 mmHg 65%
    21:00 +7°C° 0 mm 0 m/S 740 mmHg 67%
    22:00 +7°C° 0 mm 0 m/S 740 mmHg 69%
    23:00 +7°C° 0 mm 1 m/S 740 mmHg 71%
    Mehr zeigen